EHI
0 0 0 0 1 2 2 1 0 0 1 3 5 7 9 9 13 21 26 29 33 35 35 34 31 27 22 19 20 25 26 26 26 27 28 24 18 13 13 13 13 14 14 14
0 0 0 0 0 1 1 0 0 0 1 3 5 8 9 10 15 21 26 28 33 36 36 33 30 28 25 24 25 27 28 30 30 30 29 26 20 17 16 16 15 16 15 14
0 0 0 0 0 0 0 0 0 0 0 1 3 7 9 11 14 19 23 26 30 35 36 32 29 27 28 29 29 29 30 33 33 32 32 30 28 25 23 22 22 22 20 17
0 0 0 0 0 0 0 0 0 0 0 0 1 4 7 9 12 15 18 21 25 30 32 31 28 27 29 30 29 27 28 31 32 32 33 35 36 34 31 30 29 28 25 22
0 0 0 0 0 0 0 0 0 0 1 1 1 2 5 8 12 14 15 17 20 23 26 29 28 27 28 28 27 24 25 28 30 31 33 35 36 35 34 33 32 29 26 25
0 0 0 0 0 0 0 0 0 1 2 2 2 2 4 9 13 16 16 17 19 21 24 28 28 27 28 28 26 23 22 25 28 29 29 30 31 30 30 31 29 26 25 27
0 0 0 0 0 0 1 2 2 1 2 3 3 4 6 9 13 16 17 17 19 22 24 26 27 27 28 28 27 25 23 23 24 23 22 24 25 25 26 26 25 24 25 27
0 0 0 0 0 0 2 4 4 3 3 5 7 7 7 9 12 14 15 15 18 21 23 23 23 24 27 28 27 25 24 22 21 20 18 19 20 22 22 22 23 23 24 25
0 0 0 0 1 2 4 4 4 4 6 8 9 8 7 8 11 14 15 16 18 20 22 21 19 19 24 26 26 25 25 24 21 19 18 18 18 18 18 19 21 22 22 23
1 1 1 1 2 4 5 5 5 7 10 11 10 8 8 10 14 17 19 21 22 23 22 20 17 17 21 24 25 25 26 25 22 20 19 18 17 16 16 17 18 20 20 21
2 2 2 3 5 5 6 7 9 11 12 11 10 9 10 13 18 21 23 25 27 26 24 21 18 18 21 24 25 25 25 24 22 19 17 17 16 15 13 13 13 14 15 15
3 3 3 4 5 6 6 7 8 9 10 9 10 9 11 14 18 20 23 26 29 29 28 25 23 22 23 25 26 25 24 22 19 17 17 16 15 13 10 6 5 5 6 7
4 3 3 4 4 4 5 5 5 6 7 7 8 9 11 13 16 19 22 25 29 30 29 28 26 25 25 26 26 24 22 19 17 17 17 18 16 13 9 5 2 1 1 1
4 3 3 4 4 5 5 5 5 6 6 6 6 7 10 12 15 19 23 25 27 29 29 28 27 25 24 24 24 22 19 18 17 18 19 19 18 15 11 8 6 4 2 1
5 4 5 5 5 7 8 7 6 6 6 6 6 7 9 11 14 18 21 24 26 28 28 28 25 23 21 20 19 19 19 18 18 19 18 18 17 15 11 9 9 8 6 4
5 5 5 6 6 8 8 7 6 6 6 7 8 9 11 12 13 15 18 21 24 26 26 26 24 21 18 15 16 18 19 18 17 18 18 16 15 13 10 9 10 11 10 7
4 4 4 4 5 7 8 7 7 7 8 9 9 10 11 11 12 13 15 18 20 22 23 22 21 20 17 15 15 17 17 15 14 16 17 15 13 11 9 9 9 10 9 7
3 3 3 3 4 5 6 6 7 8 9 10 9 8 8 9 11 12 12 13 14 16 18 17 17 17 16 15 15 16 15 14 13 13 13 12 10 8 7 6 7 7 6 4
1 2 2 3 3 4 5 6 7 7 8 8 8 7 7 8 9 9 9 9 10 11 13 13 12 14 15 14 13 13 12 11 10 9 8 8 7 6 5 4 4 4 3 2
0 1 1 2 3 5 6 7 7 6 6 7 7 8 9 10 9 8 8 9 10 10 10 10 10 12 12 11 10 9 9 8 8 7 6 6 6 5 4 3 3 2 2 1
0 1 1 2 4 6 8 8 7 7 7 8 9 9 9 9 9 9 9 10 9 8 8 8 9 10 9 7 7 7 7 6 6 6 6 6 5 5 4 3 2 1 0 0
0 1 3 3 4 6 7 8 8 8 9 9 9 8 7 7 8 9 8 7 6 4 5 6 6 6 6 5 5 6 6 6 6 6 5 4 3 2 2 2 1 0 0 0
1 2 4 4 4 4 5 6 8 9 9 9 7 6 5 5 6 5 4 3 1 1 2 3 3 3 4 4 4 5 6 6 5 4 2 1 1 1 1 1 0 0 0 0
0 1 3 4 3 3 3 4 5 6 7 7 6 5 5 5 4 2 1 0 0 0 0 1 1 1 2 3 3 3 4 4 3 2 0 0 0 0 0 0 0 0 0 0
0 0 1 3 3 3 3 3 3 4 5 5 5 5 5 5 4 2 1 0 0 0 0 0 0 0 1 1 1 1 1 1 1 0 0 0 0 0 0 0 0 1 1 1
0 0 1 2 3 3 3 2 2 3 4 5 6 6 6 5 3 2 1 1 1 1 1 0 0 0 0 0 0 0 0 0 0 0 0 0 0 1 1 0 0 1 2 2
0 0 1 2 3 3 2 1 2 3 5 6 6 6 6 4 2 1 1 2 2 2 2 1 0 0 0 0 0 0 1 1 1 0 0 0 1 2 2 1 0 0 1 1
Wind_Speed
7 5 7 10 11 12 13 12 11 9 8 6 3 3 3 4 5 6 7 7 7 7 6 6 6 6 7 7 6 6 7 7 7 6 6 5 5 5 5 5 5 4 4 4
9 8 9 11 12 13 13 12 12 10 8 3 3 2 3 5 6 6 7 7 7 7 6 6 6 6 7 6 6 7 7 6 6 6 6 6 6 6 6 6 5 5 4 4
11 9 10 14 13 13 13 12 12 12 7 4 5 4 4 5 5 5 6 6 7 7 7 6 6 6 6 6 6 7 7 6 6 6 6 7 7 7 7 7 6 5 5 5
9 9 15 7 4 9 11 11 10 8 6 5 5 4 3 4 4 5 5 5 5 6 6 6 5 5 5 5 6 6 6 6 6 6 6 6 7 7 7 7 6 6 6 6
10 12 12 7 6 8 9 10 9 8 6 4 4 5 4 3 3 4 4 4 5 6 6 6 6 6 6 6 6 6 6 6 6 6 6 6 7 7 6 6 6 6 6 6
10 13 13 7 6 4 7 10 6 6 6 5 6 8 3 2 3 3 3 4 4 5 5 6 5 6 6 6 6 5 5 5 5 5 6 6 6 6 5 6 6 6 6 6
12 12 9 3 5 6 10 4 3 4 4 5 5 4 2 1 1 2 3 4 4 5 5 5 5 6 6 6 5 5 4 5 5 5 5 6 5 5 5 5 5 5 5 5
11 13 8 4 6 6 2 2 1 2 3 3 3 2 1 1 1 2 3 3 4 5 5 5 5 6 6 5 5 5 5 5 5 5 5 4 5 5 5 5 6 6 6 5
6 4 2 1 1 1 1 1 1 2 2 3 4 3 2 2 2 2 2 3 3 4 5 5 5 6 6 5 5 5 5 6 5 5 5 5 6 6 6 6 6 6 6 6
5 4 3 3 2 2 2 2 3 3 3 4 4 4 3 3 3 2 2 2 3 4 5 5 5 6 5 5 5 5 6 6 6 6 6 5 5 6 6 6 6 5 5 5
7 5 4 4 3 2 2 3 4 4 4 5 5 5 5 4 3 3 3 3 3 4 5 6 6 6 6 6 6 7 7 6 6 6 6 5 5 4 5 4 4 4 5 5
5 3 5 3 2 3 3 3 4 5 5 5 5 6 6 5 4 4 4 3 4 5 5 6 6 6 6 6 7 7 7 7 6 5 5 5 5 4 1 2 3 2 2 3
5 5 5 4 4 5 5 5 5 6 6 6 6 6 6 5 5 5 5 5 5 5 5 6 6 6 6 7 8 8 7 6 5 5 5 5 5 5 4 3 3 4 4 4
5 6 7 6 5 5 5 6 6 6 6 6 6 6 6 6 6 6 6 6 5 5 5 6 6 6 6 7 7 8 8 7 6 5 5 5 5 5 5 5 5 4 5 6
6 7 7 6 6 6 6 6 6 6 6 6 6 6 6 6 6 6 6 5 5 6 6 6 6 6 6 7 8 8 7 6 5 5 5 5 5 5 5 6 5 5 4 5
6 6 7 7 8 8 8 8 8 8 7 7 7 7 7 6 6 6 6 5 6 7 6 6 7 6 6 7 7 6 6 7 6 6 6 5 6 6 6 6 5 5 5 5
7 7 7 8 8 8 8 8 8 7 7 7 7 7 6 6 6 7 7 6 6 6 6 7 6 6 6 6 6 5 5 5 6 6 6 6 6 6 6 6 5 5 5 5
9 9 8 8 8 8 8 8 7 7 6 6 6 7 7 7 7 7 6 6 6 6 7 6 6 5 6 6 6 5 5 5 6 6 5 5 5 5 6 6 6 6 5 5
8 8 7 7 7 7 8 7 7 7 6 6 7 7 7 7 7 7 6 6 6 7 6 5 5 6 6 6 6 5 5 6 6 6 5 5 6 5 5 6 6 6 6 5
5 5 6 5 5 6 6 6 6 6 6 7 6 7 7 7 7 7 6 6 5 4 4 4 5 6 6 6 7 6 6 6 6 6 6 6 6 6 6 6 6 6 5 6
4 5 5 4 4 5 5 5 5 5 6 6 6 7 7 7 6 6 6 5 4 4 4 5 5 5 5 5 6 5 5 6 6 6 6 6 5 5 5 5 5 5 5 5
5 5 5 5 4 4 4 4 5 5 6 6 6 5 6 6 6 5 5 4 3 2 4 4 4 3 4 5 5 5 6 6 5 5 5 5 5 5 5 5 5 4 5 4
4 5 5 5 5 5 5 4 5 5 5 5 5 4 5 4 4 4 4 2 2 2 3 2 2 2 4 5 5 6 6 6 6 6 5 5 4 4 4 5 4 4 4 4
5 5 5 5 5 4 4 4 4 4 4 4 4 4 4 3 3 3 3 1 2 3 3 2 2 4 5 5 5 5 5 5 5 5 5 4 4 4 4 4 5 5 5 6
5 5 5 5 4 3 4 4 3 4 4 3 3 3 3 3 3 3 3 3 2 3 3 2 4 5 6 4 4 4 4 4 4 4 4 4 4 4 4 4 4 4 4 5
5 4 4 4 4 4 3 3 3 2 3 2 2 2 3 2 3 3 2 2 3 3 3 2 3 4 3 3 3 3 3 4 4 4 4 4 4 4 4 4 5 4 4 4
5 4 3 3 3 3 3 3 3 3 2 3 3 3 3 3 3 3 3 2 2 2 2 2 2 2 2 2 2 2 2 3 3 3 3 3 3 3 4 5 4 4 4 5
Wind_Direction
250 252 230 225 219 217 230 245 253 252 248 242 232 222 186 179 178 170 170 170 168 169 169 172 173 176 182 181 179 182 185 188 188 189 188 190 191 193 193 195 195 192 196 200
227 227 232 235 229 226 231 239 246 251 250 247 230 205 182 180 182 178 177 176 173 171 171 178 179 180 180 181 180 182 189 189 187 190 190 191 194 193 192 194 194 191 198 205
228 216 229 232 228 227 230 235 242 243 240 218 219 209 208 195 192 191 185 177 176 175 176 181 181 181 183 178 180 187 191 190 190 195 198 199 198 194 194 192 190 194 199 203
230 213 233 233 218 231 235 238 240 248 237 228 232 219 212 211 198 197 192 185 181 181 176 176 174 175 178 171 178 183 189 192 194 197 204 202 201 198 198 195 194 197 201 201
229 227 234 215 210 219 229 235 231 233 229 219 216 215 196 198 201 200 196 188 183 184 177 170 171 171 171 174 178 183 189 194 196 199 201 202 206 202 199 199 201 203 201 202
227 237 235 208 172 213 238 234 213 222 220 213 219 234 187 160 190 192 193 183 179 179 174 166 166 167 174 178 181 186 187 191 191 197 203 205 205 203 197 202 206 209 204 208
229 236 240 184 164 195 226 229 162 218 225 223 230 282 5 10 186 191 190 185 180 180 177 173 170 175 183 184 190 192 190 192 191 194 201 202 197 196 199 202 207 211 208 211
225 233 224 148 189 220 315 35 199 231 248 249 251 255 247 286 268 205 193 191 187 184 185 178 180 188 194 196 196 191 190 195 197 199 208 195 191 194 199 199 204 203 205 211
232 240 75 138 233 323 322 269 272 276 282 268 254 250 267 275 275 249 221 205 198 195 191 187 194 201 208 204 196 194 195 198 200 202 207 204 198 197 199 203 214 210 206 208
230 215 217 225 235 247 257 266 276 285 292 282 269 267 273 278 274 264 249 222 211 208 207 203 208 213 217 205 199 201 205 206 203 203 206 203 205 208 208 210 215 217 215 212
228 225 229 220 236 248 263 277 281 287 289 285 283 280 276 273 267 262 260 243 231 226 224 221 214 214 215 207 203 207 211 212 211 212 208 202 209 219 223 222 224 219 227 222
243 225 250 233 243 260 261 269 285 290 287 283 280 278 277 274 262 254 258 250 243 240 236 233 225 219 214 211 208 209 213 216 217 215 204 207 203 202 155 209 147 167 232 252
277 275 278 272 273 272 270 273 276 277 279 283 281 277 274 271 261 255 253 248 246 245 240 234 229 227 220 214 212 212 216 218 222 219 211 212 209 208 201 187 161 178 195 195
267 263 258 256 264 269 272 274 272 269 269 270 273 269 266 266 263 257 256 255 251 246 241 236 231 229 223 217 215 213 217 211 213 212 214 216 216 217 215 208 201 201 197 189
253 254 260 265 263 265 266 263 263 263 264 265 266 264 262 262 263 262 260 257 246 241 240 239 235 233 222 216 216 214 215 213 209 211 213 217 220 222 222 218 217 209 191 173
265 261 257 259 263 264 261 261 261 263 263 265 267 265 264 264 265 262 257 248 241 242 242 241 238 231 219 214 214 214 213 210 208 212 216 213 214 217 220 219 218 218 214 195
264 260 259 260 263 264 264 265 264 264 265 268 271 271 269 264 262 260 256 249 247 248 243 239 238 230 218 212 211 215 215 202 202 215 220 218 217 217 218 220 220 217 218 208
266 270 273 271 267 266 265 264 264 265 267 270 271 270 266 264 269 270 263 259 255 252 248 242 236 227 218 214 214 216 215 213 209 214 218 221 219 218 217 217 217 218 212 195
269 269 270 270 266 262 262 263 268 270 272 270 268 266 267 270 269 268 262 250 244 244 246 244 232 226 220 213 212 213 217 216 212 211 214 211 215 217 218 218 220 220 215 207
282 280 275 271 267 267 268 266 262 262 265 265 264 266 267 268 269 268 262 254 246 249 246 240 228 227 222 212 210 212 214 214 214 211 211 214 215 213 216 219 219 218 215 215
297 293 290 283 276 274 276 278 272 267 266 264 264 265 268 272 271 268 263 259 253 248 241 227 223 222 218 205 205 214 214 215 214 214 212 213 215 218 221 223 222 219 217 218
317 314 308 301 291 285 284 283 280 277 274 269 268 272 275 273 270 266 261 265 261 245 239 237 230 213 205 208 214 218 215 215 215 214 213 213 215 217 218 220 217 211 212 215
319 320 319 314 307 299 292 286 285 286 284 282 280 280 278 285 285 280 277 278 268 269 265 259 246 192 205 221 221 218 216 214 213 214 214 213 211 211 208 207 203 204 205 206
325 325 322 312 307 302 299 301 301 295 290 282 277 279 280 280 281 280 285 272 253 254 266 249 198 199 217 227 226 222 217 213 212 212 211 209 207 204 198 194 195 199 201 203
321 318 313 311 305 301 298 296 294 291 285 283 286 289 286 293 303 314 311 295 285 256 259 228 201 204 218 228 222 221 220 212 208 208 208 206 206 202 195 191 195 202 204 202
305 300 307 306 306 302 296 295 295 302 306 316 324 330 331 328 319 307 292 280 286 283 275 259 227 216 221 220 220 219 212 201 200 205 207 206 204 198 187 185 190 204 208 205
291 286 282 289 294 294 298 305 310 312 319 320 324 332 335 334 332 328 322 314 306 289 272 262 243 222 216 209 207 207 208 203 197 197 200 201 197 192 190 193 200 202 203 200